Location: Campillo
(40.8621°N, 4.2488°W)
Time: 12:29:44
(UTC+00:00)

DNEPR-1 R/B - Pass Details

Date: 11 May 2021
Orbit: 587 x 1334 km, 64.6° (Epoch: 14 June)

Event Time Altitude Azimuth Distance (km) Brightness Sun altitude
Exits shadow 22:34:44 52° 76° (ENE) 1,035 4.5 -26.7°
Drops below altitude 10° 22:38:52 10° 40° (NE) 2,282 6.7 -27.1°
Sets 22:41:04 0° 37° (NE) 3,119 7.5 -27.2°
